Flag for Hungary Weather past 2 weeks in Szeged, Hungary

Now
64 °F

Overcast.


Feels Like: 64 °F
Forecast: 52 / 64 °F
Wind: 2 mph from Southwest

Location: Szeged

Current Time: Sep 21, 2014 at 10:52:15 AM

Latest Report: Sep 21, 2014 at 10:00 AM


Visibility: 4 mi

Pressure: 29.93 "Hg

Humidity: 97%

Dew point: 63 °F

Location of SzegedLocation

Historic Weather in Szeged — Graph

°F

Szeged temperature yesterday

Maximum temperature yesterday: 75 °F (at 3:00 PM)
Minimum temperature yesterday: 61 °F (at 7:00 AM)
Average temperature yesterday: 65 °F

Past Weeks' High & Low Weather Summary

 TemperatureHumidityPressure
High82 °F (Sep 9, 4:00 PM)97% (Sep 7, 5:00 AM)30.16 "Hg (Sep 7, 5:00 AM)
Low50 °F (Sep 18, 7:00 AM)36% (Sep 18, 3:00 PM)29.78 "Hg (Sep 11, 6:00 PM)
Average65 °F82%29.99 "Hg
* Reported Sep 6 9:00 AM — Sep 21 9:00 AM, Szeged, Weather by CustomWeather, © 2014

Note: Actual official high and low records may vary slightly from our data, if they occured in-between our weather recording intervals... More about our weather records

Advertising

Szeged weather history for previous 24 hours

 ConditionsComfort  
Time TempWeatherWind HumidityBarometerVisibility
9:00 AM
Sep 21
63 °FFog.1 mph97%29.91 "Hg2 mi
8:00 AM62 °FFog.2 mph97%29.92 "Hg1 mi
7:00 AM60 °FFog.2 mph97%29.93 "Hg1 mi
6:00 AM60 °FFog.1 mph97%29.93 "Hg1 mi
5:00 AM60 °FCool.3 mph97%29.94 "HgN/A
4:00 AM61 °FFog.2 mph97%29.94 "Hg0 mi
3:00 AM60 °FFog.2 mph97%29.94 "Hg0 mi
2:00 AM60 °FFog.2 mph97%29.95 "Hg1 mi
1:00 AM61 °FPassing clouds.2 mph97%29.94 "Hg5 mi
12:00 AM61 °FOvercast.2 mph97%29.96 "Hg9 mi
11:00 PM
Sep 20
64 °FPassing clouds.2 mph95%29.95 "Hg12 mi
10:00 PM65 °FPassing clouds.3 mph94%29.96 "Hg16 mi
9:00 PM65 °FPassing clouds.2 mph93%29.96 "Hg19 mi
8:00 PM66 °FPassing clouds.2 mph88%29.95 "Hg16 mi
3:00 PM75 °FOvercast.3 mph68%29.95 "Hg19 mi
2:00 PM72 °FOvercast.3 mph72%29.97 "Hg19 mi
1:00 PM71 °FOvercast.2 mph73%29.99 "Hg16 mi
12:00 PM67 °FOvercast.3 mph79%30.01 "Hg16 mi
11:00 AM67 °FOvercast.5 mph76%30.00 "Hg12 mi
10:00 AM64 °FOvercast.3 mph83%30.01 "Hg11 mi
Weather by CustomWeather, © 2014

See weather overviewHow to use our weather pages